{"data":{"norad_id":60486,"epoch":"2026-09-19T01:03:24.871104Z","epoch_age_seconds":147639,"freshness":"FRESH","line1":"1 60486U 24149U   26262.04403786  .00034707  00000+0  66876-3 0  9990","line2":"2 60486  97.3683 347.8501 0002670 262.1439  97.9508 15.47786987116842","mean_motion":15.47786987,"eccentricity":0.000267,"inclination_deg":97.3683,"raan_deg":347.8501,"arg_perigee_deg":262.1439,"mean_anomaly_deg":97.9508,"bstar":0.00066876,"rev_number":11684,"period_min":93.03605806837,"perigee_km":421.38539535438,"apogee_km":425.01731003472,"semimajor_km":6801.3383526945,"source":"CELESTRAK","updated_at":"2026-09-20T09:00:34.711879Z"}}